Location: Unspecified
(0.0000°N, 0.0000°E)
Time: 16:05:45
(UTC+00:00)

Hubble Space Telescope - Pass Details

Date: 13 December 2018
Orbit: 537 x 540 km, 28.5° (Epoch: 11 December)

Event Time Altitude Azimuth Distance (km) Brightness Sun altitude
Exits shadow 05:11:28 - 341° (NNW) 2,345 3.6 -9.8°
Reaches altitude 10° 05:14:18 10° 11° (N) 1,778 3.3 -9.1°
Maximum altitude 05:15:26 11° 27° (NNE) 1,719 3.4 -8.9°
Drops below altitude 10° 05:16:33 10° 43° (NE) 1,779 3.7 -8.6°
Sets 05:20:30 0° 80° (E) 2,671 5.4 -7.7°
